TimeCST,TemperatureF,Dew PointF,Humidity,Sea Level PressureIn,VisibilityMPH,Wind Direction,Wind SpeedMPH,Gust SpeedMPH,PrecipitationIn,Events,Conditions,WindDirDegrees,DateUTC
12:51 AM,52.0,46.0,80,30.11,10.0,North,9.2,-,N/A,,Overcast,360,2011-11-21 06:51:00
1:33 AM,51.8,46.4,82,30.12,8.0,North,10.4,-,N/A,,Overcast,350,2011-11-21 07:33:00
1:51 AM,51.1,46.9,86,30.11,9.0,NNW,10.4,-,N/A,,Overcast,340,2011-11-21 07:51:00
2:51 AM,51.1,46.0,83,30.11,9.0,North,6.9,-,N/A,,Overcast,350,2011-11-21 08:51:00
3:51 AM,51.1,46.0,83,30.11,10.0,NNW,5.8,-,N/A,,Overcast,340,2011-11-21 09:51:00
4:29 AM,50.0,46.4,87,30.12,9.0,North,10.4,-,0.00,,Overcast,350,2011-11-21 10:29:00
4:51 AM,50.0,46.0,86,30.10,9.0,North,6.9,-,0.00,,Overcast,350,2011-11-21 10:51:00
5:51 AM,50.0,46.0,86,30.12,6.0,North,11.5,-,N/A,,Overcast,350,2011-11-21 11:51:00
6:23 AM,50.0,46.4,87,30.13,5.0,North,8.1,-,N/A,,Overcast,10,2011-11-21 12:23:00
6:51 AM,50.0,46.9,89,30.13,5.0,North,6.9,-,N/A,,Overcast,360,2011-11-21 12:51:00
7:19 AM,50.0,46.4,87,30.14,2.0,North,6.9,-,N/A,,Overcast,10,2011-11-21 13:19:00
7:51 AM,50.0,48.0,93,30.14,2.0,NNE,8.1,-,N/A,,Overcast,20,2011-11-21 13:51:00
8:13 AM,50.0,48.2,94,30.14,1.8,North,8.1,-,N/A,,Overcast,10,2011-11-21 14:13:00
8:30 AM,51.8,48.2,88,30.15,2.0,NNE,8.1,-,N/A,,Overcast,20,2011-11-21 14:30:00
8:51 AM,51.1,48.0,89,30.15,2.0,North,8.1,-,N/A,,Overcast,350,2011-11-21 14:51:00
9:19 AM,51.8,48.2,88,30.15,1.8,North,8.1,-,N/A,,Overcast,360,2011-11-21 15:19:00
9:51 AM,52.0,48.9,89,30.14,1.0,NNE,6.9,-,N/A,,Overcast,30,2011-11-21 15:51:00
10:51 AM,53.1,50.0,89,30.11,0.8,NNE,6.9,-,N/A,,Overcast,30,2011-11-21 16:51:00
11:02 AM,53.6,50.0,88,30.11,0.8,NE,5.8,-,N/A,,Overcast,40,2011-11-21 17:02:00
11:48 AM,53.6,51.8,94,30.09,1.5,NNE,10.4,-,N/A,,Overcast,30,2011-11-21 17:48:00
11:51 AM,54.0,51.1,90,30.09,1.5,NE,9.2,-,N/A,,Overcast,50,2011-11-21 17:51:00
12:51 PM,55.4,51.8,88,30.02,1.5,NE,5.8,-,N/A,Rain,Light Rain,50,2011-11-21 18:51:00
1:06 PM,55.4,51.8,88,30.01,1.5,ENE,6.9,-,0.00,,Overcast,60,2011-11-21 19:06:00
1:13 PM,55.4,51.8,88,30.01,3.0,NE,6.9,-,0.00,,Overcast,40,2011-11-21 19:13:00
1:51 PM,55.9,52.0,87,29.98,3.0,ENE,3.5,-,0.00,,Overcast,60,2011-11-21 19:51:00
2:32 PM,57.2,53.6,88,29.94,1.5,NE,6.9,-,0.02,Rain,Light Rain,50,2011-11-21 20:32:00
2:51 PM,57.9,55.0,90,29.91,2.5,ENE,8.1,-,0.02,Rain,Light Rain,70,2011-11-21 20:51:00
2:58 PM,57.2,55.4,94,29.92,3.0,ENE,5.8,-,0.00,,Overcast,60,2011-11-21 20:58:00
3:51 PM,61.0,55.9,83,29.88,4.0,NE,3.5,-,0.00,,Haze,40,2011-11-21 21:51:00
4:09 PM,60.8,55.4,82,29.88,4.0,Calm,Calm,-,N/A,,Haze,0,2011-11-21 22:09:00
4:51 PM,60.8,57.2,88,29.87,4.0,NW,3.5,-,N/A,,Mostly Cloudy,320,2011-11-21 22:51:00
5:51 PM,60.1,55.9,86,29.86,6.0,NW,8.1,-,N/A,,Overcast,320,2011-11-21 23:51:00
6:04 PM,59.0,55.4,88,29.88,4.0,NW,12.7,-,N/A,,Overcast,310,2011-11-22 00:04:00
6:51 PM,57.9,55.0,90,29.90,5.0,NNW,4.6,-,N/A,,Overcast,330,2011-11-22 00:51:00
7:28 PM,57.2,55.4,94,29.91,5.0,WNW,5.8,-,N/A,,Overcast,300,2011-11-22 01:28:00
7:51 PM,57.9,55.0,90,29.93,5.0,NW,6.9,-,N/A,,Overcast,310,2011-11-22 01:51:00
8:07 PM,57.2,53.6,88,29.92,5.0,ENE,4.6,-,N/A,,Overcast,60,2011-11-22 02:07:00
8:51 PM,57.0,55.0,93,29.93,5.0,Calm,Calm,-,0.00,,Clear,0,2011-11-22 02:51:00
9:14 PM,57.2,53.6,88,29.96,4.0,NNW,9.2,-,N/A,,Scattered Clouds,330,2011-11-22 03:14:00
9:24 PM,57.2,55.4,94,29.96,4.0,NNW,8.1,-,N/A,,Mostly Cloudy,340,2011-11-22 03:24:00
9:51 PM,57.0,54.0,89,29.95,4.0,NNW,10.4,-,N/A,,Overcast,330,2011-11-22 03:51:00
9:57 PM,57.2,53.6,88,29.97,5.0,NW,11.5,-,N/A,Thunderstorm,Overcast,310,2011-11-22 03:57:00
10:05 PM,57.2,53.6,88,29.95,5.0,North,9.2,-,N/A,Thunderstorm,Overcast,360,2011-11-22 04:05:00
10:26 PM,57.2,53.6,88,29.96,6.0,NNW,9.2,-,N/A,,Overcast,330,2011-11-22 04:26:00
10:48 PM,55.4,53.6,94,29.95,9.0,North,10.4,-,0.00,Rain,Light Rain,350,2011-11-22 04:48:00
10:51 PM,55.9,54.0,93,29.94,9.0,North,3.5,-,0.00,Rain,Light Rain,350,2011-11-22 04:51:00
10:58 PM,55.4,53.6,94,29.95,7.0,NNW,8.1,-,0.00,Rain-Thunderstorm,Light Thunderstorms and Rain,340,2011-11-22 04:58:00
11:13 PM,55.4,53.6,94,29.95,2.0,NNW,10.4,-,0.11,Rain-Thunderstorm,Thunderstorms and Rain,340,2011-11-22 05:13:00
11:39 PM,53.6,51.8,94,29.96,3.0,North,17.3,21.9,0.32,Rain-Thunderstorm,Heavy Thunderstorms and Rain,350,2011-11-22 05:39:00
11:51 PM,54.0,51.1,90,29.95,4.0,North,16.1,-,0.37,Rain-Thunderstorm,Heavy Thunderstorms and Rain,350,2011-11-22 05:51:00